Weather History for KIIY - March, 2014

Change the Weather History Date:

Friday, March 14, 2014

  Actual Average (KDBN) Record (KDBN)
Temperature  
Mean Temperature 48 °F -  
Max Temperature 64 °F 70 °F 86 °F (1953)
Min Temperature 32 °F 41 °F 23 °F (1993)
Degree Days  
Heating Degree Days 17    
Moisture  
Dew Point 24 °F    
Average Humidity 43    
Maximum Humidity 87    
Minimum Humidity 16    
Precipitation  
Precipitation 0.00 in - - ()
Sea Level Pressure  
Sea Level Pressure 30.22 in    
Wind  
Wind Speed 4 mph (SSW)    
Max Wind Speed 14 mph    
Max Gust Speed 21 mph    
Visibility 10 miles    
Events      
Averages and records for this station are not official NWS values.
T = Trace of Precipitation, MM = Missing Value Source: NWS Daily Summary

Daily Weather History Graph

Daily Weather History Graph

Search for Another Location

Airport or City:

Trip Planner

Search our weather history database for the weather conditions in past years. The results will help you decide how hot, cold, wet, or windy it might be!

Date:

Astronomy

Mar. 14, 2014 Rise Set
Actual Time 7:43 AM EDT 7:38 PM EDT
Civil Twilight 7:18 AM EDT 8:03 PM EDT
Nautical Twilight 6:49 AM EDT 8:32 PM EDT
Astronomical Twilight 6:20 AM EDT 9:01 PM EDT
Moon 6:02 PM EDT (3/14) 6:18 AM EDT (3/14)
Length of Visible Light 12h 45m
Length of Day
11h 55m
Waxing Gibbous, 96% of the Moon is Illuminated
Mar 14
Waxing Gibbous
Mar 16
Full
Mar 23
Last Quarter
Mar 30
New
Apr 7
First Quarter

Hourly Weather History & Observations

Time (EDT) Temp. Windchill Dew Point Humidity Pressure Visibility Wind Dir Wind Speed Gust Speed Precip Events Conditions
12:15 AM 42.8 °F 38.6 °F 21.2 °F 42% 30.23 in 10.0 mi WNW 6.9 mph - N/A   Clear
12:35 AM 42.8 °F 38.6 °F 21.2 °F 42% 30.23 in 10.0 mi NW 6.9 mph - N/A   Clear
12:55 AM 42.8 °F 39.3 °F 21.2 °F 42% 30.23 in 10.0 mi NW 5.8 mph - N/A   Clear
1:15 AM 41.0 °F 37.1 °F 23.0 °F 49% 30.23 in 10.0 mi NW 5.8 mph - N/A   Clear
1:35 AM 39.2 °F 35.0 °F 21.2 °F 49% 30.24 in 10.0 mi NW 5.8 mph - N/A   Clear
1:55 AM 39.2 °F - 24.8 °F 56% 30.24 in 10.0 mi Calm Calm - N/A   Clear
2:15 AM 35.6 °F - 26.6 °F 70% 30.26 in 10.0 mi Calm Calm - N/A   Clear
2:35 AM 33.8 °F - 26.6 °F 75% 30.25 in 10.0 mi Calm Calm - N/A   Clear
2:55 AM 33.8 °F 29.6 °F 26.6 °F 75% 30.25 in 10.0 mi NW 4.6 mph - N/A   Clear
3:15 AM 33.8 °F 30.8 °F 26.6 °F 75% 30.26 in 10.0 mi NW 3.5 mph - N/A   Clear
3:35 AM 33.8 °F 29.6 °F 28.4 °F 81% 30.26 in 10.0 mi NNW 4.6 mph - N/A   Clear
3:55 AM 33.8 °F - 28.4 °F 81% 30.25 in 10.0 mi Calm Calm - N/A   Clear
4:10 AM 32.0 °F 27.5 °F 28.4 °F 87% 30.25 in 10.0 mi East 4.6 mph - N/A   Clear
4:35 AM 32.0 °F - 28.4 °F 87% 30.24 in 10.0 mi Calm Calm - N/A   Clear
4:55 AM 32.0 °F 28.7 °F 26.6 °F 80% 30.25 in 10.0 mi East 3.5 mph - N/A   Clear
5:15 AM 32.0 °F - 28.4 °F 87% 30.25 in 10.0 mi Calm Calm - N/A   Clear
5:35 AM 32.0 °F - 26.6 °F 80% 30.25 in 10.0 mi Calm Calm - N/A   Clear
5:55 AM 32.0 °F - 26.6 °F 80% 30.26 in 10.0 mi Calm Calm - N/A   Clear
6:15 AM 32.0 °F - 26.6 °F 80% 30.27 in 10.0 mi Calm Calm - N/A   Clear
6:35 AM 32.0 °F - 26.6 °F 80% 30.27 in 10.0 mi Calm Calm - N/A   Clear
6:55 AM 32.0 °F - 26.6 °F 80% 30.28 in 10.0 mi Calm Calm - N/A   Clear
7:15 AM 32.0 °F - 26.6 °F 80% 30.28 in 10.0 mi Calm Calm - N/A   Clear
8:15 AM 33.8 °F - 28.4 °F 81% 30.28 in 10.0 mi Calm Calm - N/A   Clear
8:35 AM 33.8 °F - 28.4 °F 81% 30.28 in 10.0 mi Calm Calm - N/A   Clear
8:55 AM 37.4 °F - 32.0 °F 81% 30.30 in 10.0 mi Calm Calm - N/A   Clear
9:15 AM 41.0 °F - 30.2 °F 65% 30.30 in 10.0 mi Calm Calm - N/A   Clear
9:35 AM 44.6 °F - 28.4 °F 53% 30.31 in 10.0 mi Calm Calm - N/A   Clear
9:55 AM 46.4 °F 43.5 °F 23.0 °F 40% 30.30 in 10.0 mi SE 5.8 mph - N/A   Clear
10:15 AM 46.4 °F 44.3 °F 23.0 °F 40% 30.31 in 10.0 mi SE 4.6 mph - N/A   Clear
10:35 AM 50.0 °F - 23.0 °F 35% 30.31 in 10.0 mi South 6.9 mph - N/A   Clear
10:55 AM 53.6 °F - 24.8 °F 33% 30.31 in 10.0 mi South 6.9 mph - N/A   Clear
11:15 AM 53.6 °F - 23.0 °F 30% 30.31 in 10.0 mi Calm Calm - N/A   Clear
11:35 AM 55.4 °F - 21.2 °F 26% 30.32 in 10.0 mi South 6.9 mph - N/A   Clear
11:55 AM 57.2 °F - 21.2 °F 25% 30.32 in 10.0 mi SSE 6.9 mph - N/A   Clear
12:15 PM 59.0 °F - 23.0 °F 25% 30.31 in 10.0 mi South 4.6 mph - N/A   Clear
12:35 PM 59.0 °F - 17.6 °F 20% 30.30 in 10.0 mi SSW 3.5 mph - N/A   Clear
12:55 PM 60.8 °F - 19.4 °F 20% 30.29 in 10.0 mi South 8.1 mph - N/A   Clear
1:15 PM 60.8 °F - 14.0 °F 16% 30.28 in 10.0 mi Calm Calm - N/A   Clear
1:35 PM 62.6 °F - 17.6 °F 18% 30.28 in 10.0 mi SSW 6.9 mph - N/A   Clear
1:55 PM 62.6 °F - 17.6 °F 18% 30.26 in 10.0 mi SSW 10.4 mph - N/A   Clear
2:15 PM 62.6 °F - 17.6 °F 18% 30.24 in 10.0 mi SSW 5.8 mph - N/A   Clear
2:35 PM 62.6 °F - 15.8 °F 16% 30.22 in 10.0 mi SW 9.2 mph - N/A   Clear
2:55 PM 64.4 °F - 19.4 °F 18% 30.21 in 10.0 mi South 13.8 mph 20.7 mph N/A   Clear
3:15 PM 64.4 °F - 17.6 °F 16% 30.20 in 10.0 mi SSW 10.4 mph - N/A   Clear
3:35 PM 64.4 °F - 17.6 °F 16% 30.19 in 10.0 mi SSE 5.8 mph - N/A   Clear
3:55 PM 64.4 °F - 19.4 °F 18% 30.18 in 10.0 mi South 9.2 mph - N/A   Clear
4:15 PM 64.4 °F - 21.2 °F 19% 30.17 in 10.0 mi South 11.5 mph 17.3 mph N/A   Clear
4:35 PM 64.4 °F - 21.2 °F 19% 30.16 in 10.0 mi South 9.2 mph 16.1 mph N/A   Clear
4:55 PM 64.4 °F - 21.2 °F 19% 30.15 in 10.0 mi SSW 8.1 mph - N/A   Clear
5:15 PM 64.4 °F - 19.4 °F 18% 30.14 in 10.0 mi WSW 10.4 mph - N/A   Clear
5:35 PM 64.4 °F - 21.2 °F 19% 30.14 in 10.0 mi SSW 9.2 mph - N/A   Clear
5:55 PM 64.4 °F - 21.2 °F 19% 30.14 in 10.0 mi South 6.9 mph - N/A   Clear
6:15 PM 64.4 °F - 23.0 °F 21% 30.13 in 10.0 mi SSW 8.1 mph - N/A   Clear
6:35 PM 64.4 °F - 23.0 °F 21% 30.14 in 10.0 mi SW 5.8 mph - N/A   Clear
6:55 PM 62.6 °F - 23.0 °F 22% 30.14 in 10.0 mi SSW 4.6 mph - N/A   Clear
7:15 PM 62.6 °F - 23.0 °F 22% 30.14 in 10.0 mi SSW 4.6 mph - N/A   Clear
7:35 PM 60.8 °F - 24.8 °F 25% 30.14 in 10.0 mi SSW 3.5 mph - N/A   Clear
7:55 PM 59.0 °F - 28.4 °F 31% 30.14 in 10.0 mi South 4.6 mph - N/A   Clear
8:15 PM 55.4 °F - 28.4 °F 36% 30.13 in 10.0 mi South 4.6 mph - N/A   Clear
8:35 PM 55.4 °F - 28.4 °F 36% 30.13 in 10.0 mi South 4.6 mph - N/A   Clear
8:55 PM 55.4 °F - 26.6 °F 33% 30.14 in 10.0 mi SSW 3.5 mph - N/A   Clear
9:15 PM 53.6 °F - 28.4 °F 38% 30.14 in 10.0 mi Calm Calm - N/A   Clear
9:35 PM 53.6 °F - 26.6 °F 35% 30.16 in 10.0 mi SW 3.5 mph - N/A   Clear
9:55 PM 53.6 °F - 26.6 °F 35% 30.16 in 10.0 mi SW 4.6 mph - N/A   Clear
10:15 PM 55.4 °F - 26.6 °F 33% 30.16 in 10.0 mi SSW 3.5 mph - N/A   Clear
10:35 PM 55.4 °F - 26.6 °F 33% 30.15 in 10.0 mi SSW 5.8 mph - N/A   Clear
10:55 PM 55.4 °F - 26.6 °F 33% 30.15 in 10.0 mi SSW 4.6 mph - N/A   Clear
11:15 PM 53.6 °F - 26.6 °F 35% 30.15 in 10.0 mi SSW 3.5 mph - N/A   Clear
11:35 PM 53.6 °F - 28.4 °F 38% 30.15 in 10.0 mi SSW 3.5 mph - N/A   Clear
11:55 PM 53.6 °F - 28.4 °F 38% 30.15 in 10.0 mi WSW 4.6 mph - N/A   Clear